Probability
0 0 0 0 0 0 0 0 0 0 0 0 0 0 0 0 0 0 0 0 1 5 20 45 59 59 52 43 35 31 27 25 27 26 25 21 13 7 6 6 4 2 0 0 0 0 0 0 0
0 0 0 0 0 0 0 0 0 0 0 0 0 0 0 0 0 0 0 0 1 6 21 43 59 60 54 45 37 31 27 25 26 25 24 19 12 8 6 6 5 3 2 0 0 0 0 0 0
0 0 0 0 0 0 0 0 0 0 0 0 0 0 0 0 0 0 0 0 1 7 20 41 57 61 56 49 41 35 29 27 25 23 21 16 12 9 8 7 6 5 3 1 0 0 0 0 0
0 0 0 0 0 0 0 0 0 0 0 0 0 0 0 0 0 0 0 0 1 7 18 37 55 60 56 51 44 37 31 27 25 22 18 15 14 13 10 9 7 6 3 1 0 0 0 0 0
0 1 1 0 0 0 0 0 0 0 0 0 0 0 0 0 0 0 0 0 2 8 18 33 51 59 58 53 45 37 30 27 25 22 18 17 17 15 11 10 8 5 2 0 0 0 0 0 0
1 2 1 0 0 0 0 0 0 0 0 0 0 0 0 0 0 0 0 0 2 8 18 30 45 56 58 54 46 38 32 28 25 22 19 18 17 14 11 9 8 4 1 0 0 0 0 0 0
1 1 1 0 0 0 0 0 0 0 0 0 0 0 0 0 0 0 0 0 2 8 16 25 34 44 49 48 43 37 33 29 24 20 17 16 14 12 10 9 6 2 0 0 0 0 0 0 0
1 1 0 0 0 0 0 0 0 0 0 0 0 0 0 0 0 1 2 2 4 8 14 20 25 31 35 38 37 35 31 28 23 18 14 12 11 9 8 6 4 1 0 0 0 0 0 0 0
1 1 0 0 0 0 0 0 0 0 0 0 0 0 0 0 1 2 4 6 8 10 14 18 22 24 26 30 32 31 27 23 18 14 10 8 6 5 4 3 1 0 0 0 0 0 0 0 0
0 0 0 0 0 0 0 0 0 0 0 0 0 0 0 0 1 2 5 8 11 14 16 18 20 21 22 25 27 26 21 16 12 10 7 5 3 2 1 0 0 0 0 0 0 0 0 0 0
0 0 0 0 0 0 0 0 0 0 0 0 0 0 0 0 1 3 5 7 12 16 20 22 22 22 21 21 22 21 16 11 8 6 5 4 1 0 0 0 0 0 0 0 0 0 0 0 0
0 0 0 0 0 0 0 0 0 0 0 0 0 0 0 0 2 4 5 7 11 15 20 25 26 25 22 20 18 16 13 9 6 5 4 2 1 0 0 0 0 0 0 0 0 0 0 0 0
0 0 0 0 0 0 0 0 0 0 0 0 0 0 0 0 2 5 7 9 10 12 18 24 28 28 25 20 15 12 10 8 6 4 2 1 0 0 0 0 0 0 0 0 0 0 0 0 0
0 0 0 0 0 0 0 0 0 0 0 0 0 0 0 1 3 6 10 12 10 11 16 21 26 28 26 20 13 9 7 6 6 4 1 0 0 0 0 0 0 0 0 0 0 0 0 0 0
0 0 0 0 0 0 0 0 0 0 0 0 0 0 0 1 2 5 9 13 12 12 16 19 24 26 24 18 12 8 6 5 6 4 1 0 0 0 0 0 0 0 0 0 0 0 0 0 0
0 0 0 0 0 0 0 0 0 0 0 0 0 0 0 0 1 3 7 12 15 16 18 20 22 23 21 16 11 7 5 5 6 5 2 0 0 0 0 0 0 0 0 0 0 0 0 0 0
0 0 0 0 0 0 0 0 0 0 0 0 0 0 0 0 1 2 5 10 16 19 20 21 21 19 18 15 11 6 4 5 5 4 2 1 0 0 0 0 0 0 0 0 0 0 0 0 0
0 0 0 0 0 0 0 0 0 0 0 0 0 0 0 0 0 1 4 8 15 20 22 23 20 16 15 14 9 5 4 4 5 4 2 1 0 0 0 0 0 0 0 0 0 0 0 0 0
0 0 0 0 0 0 0 0 0 0 0 0 0 0 0 0 0 1 3 8 14 18 21 22 19 14 12 11 8 4 3 4 5 4 3 1 0 0 0 0 0 0 0 0 0 0 0 0 0
0 0 0 0 0 0 0 0 0 0 0 0 0 0 0 0 0 0 2 7 14 16 17 20 18 13 11 9 6 4 3 3 4 4 3 2 1 0 0 0 0 0 0 0 0 0 0 0 0
0 0 0 0 0 0 0 0 0 0 0 0 0 0 0 0 0 0 0 4 11 14 14 15 15 12 10 8 6 4 3 3 3 4 4 2 1 0 0 0 0 0 0 0 0 0 0 0 0
0 0 0 0 0 0 0 0 0 0 0 0 0 0 0 0 0 0 0 2 6 12 14 13 12 12 10 8 7 5 3 3 3 4 4 2 0 0 0 0 0 0 0 0 0 0 0 0 0
0 0 0 0 0 0 0 0 0 0 0 0 0 0 0 0 0 0 0 0 3 9 14 15 13 11 10 9 8 6 4 3 3 4 4 2 0 0 0 0 0 0 0 0 0 0 0 0 0
0 0 0 0 0 0 0 0 0 0 0 0 0 0 0 0 0 0 0 0 2 6 13 16 15 12 11 10 9 7 6 4 3 3 4 4 2 0 0 0 0 0 0 0 0 0 0 0 0
0 0 0 0 0 0 0 0 0 0 0 0 0 0 0 0 0 0 0 0 1 4 9 14 15 13 12 11 9 9 7 5 4 3 4 4 3 1 0 0 0 0 0 0 0 0 0 0 0
0 0 0 0 0 0 0 0 0 0 0 0 0 0 0 0 0 0 0 0 0 2 6 11 13 13 12 11 9 9 8 7 4 3 3 4 3 2 1 0 0 0 0 0 0 0 0 0 0
0 0 0 0 0 0 0 0 0 0 0 0 0 0 0 0 0 0 0 0 0 1 4 8 11 12 12 11 10 10 9 7 5 4 3 3 3 3 1 0 0 0 0 0 0 0 0 0 0
0 0 0 0 0 0 0 0 0 0 0 0 0 0 0 0 0 0 0 0 0 1 3 5 8 11 14 14 12 11 10 7 5 4 3 3 3 3 2 1 0 0 0 0 0 0 0 0 0
0 0 0 0 0 0 0 0 0 0 0 0 0 0 0 0 0 0 0 0 0 0 1 3 6 10 14 15 14 12 10 8 7 5 3 2 2 3 3 2 1 0 0 0 0 0 0 0 0
0 0 0 0 0 0 0 0 0 0 0 0 0 0 0 0 0 0 0 0 0 0 0 2 5 8 12 15 14 12 10 9 8 6 3 2 2 3 3 3 2 1 0 0 0 0 0 0 0
Wind_Speed
4 2 3 3 3 2 9 9 5 5 6 5 4 6 7 9 8 7 2 8 9 14 17 20 23 23 23 22 21 20 20 20 20 20 19 19 19 18 18 18 17 17 17 16 16 16 16 16 16
1 2 3 3 4 9 10 8 10 11 7 1 2 3 4 8 5 4 2 7 11 14 15 16 22 23 23 22 21 21 20 20 20 20 19 19 19 18 18 17 17 17 16 16 16 16 16 16 16
1 2 3 4 9 13 9 6 12 9 8 4 3 3 5 6 4 4 4 9 11 13 13 16 22 23 23 22 21 21 21 20 20 20 19 19 18 18 18 17 17 17 16 16 16 15 15 15 16
1 2 1 7 19 13 7 4 3 3 4 5 3 6 5 4 3 4 6 11 13 13 12 16 23 23 23 22 22 22 21 21 20 20 19 19 18 18 18 17 17 17 16 15 15 15 15 15 15
1 3 7 14 22 9 6 6 3 3 3 2 2 5 7 4 1 3 9 13 14 13 12 15 22 23 23 22 22 21 21 20 20 19 19 19 18 18 18 17 17 17 16 15 15 15 15 15 15
2 4 11 20 19 10 7 7 6 8 6 4 3 4 7 2 1 5 9 10 11 12 12 14 22 22 22 22 22 21 21 20 20 19 19 19 18 18 18 17 17 16 16 15 15 14 14 14 14
4 6 14 15 14 11 9 6 9 10 11 8 4 4 6 3 2 5 7 7 7 9 10 11 13 16 20 20 21 21 20 20 20 19 19 18 18 18 18 17 16 16 15 15 15 14 14 14 14
4 5 13 13 13 12 5 5 6 10 12 6 6 7 7 3 4 7 7 7 7 8 9 9 10 11 12 14 18 19 19 19 19 18 16 16 17 17 18 16 16 16 15 15 14 14 14 13 13
3 10 18 14 9 6 3 6 6 5 6 5 6 6 5 4 8 10 9 9 10 11 9 9 10 10 10 10 14 16 17 17 17 14 16 14 8 9 10 12 15 15 15 14 14 14 13 12 11
6 14 21 9 5 5 5 7 6 5 7 7 5 4 1 7 10 13 14 16 17 16 14 11 11 11 10 9 9 8 9 10 9 8 10 7 6 6 8 12 13 14 14 13 14 13 12 8 4
7 13 10 10 7 7 9 9 7 8 11 8 7 5 4 8 11 14 15 17 17 16 15 13 13 12 11 8 7 5 5 6 8 10 10 7 6 6 5 4 6 7 8 6 7 7 5 4 4
9 11 11 10 9 10 11 9 10 13 13 6 7 6 7 11 13 15 16 16 14 14 15 14 13 12 11 9 7 7 6 6 7 9 10 8 5 5 5 4 4 4 3 5 5 4 5 5 4
12 12 13 13 12 11 13 15 13 15 12 8 7 8 10 12 13 13 13 13 14 15 15 15 14 14 12 10 8 8 7 7 8 8 9 9 7 6 5 4 4 4 4 5 5 4 5 4 4
8 10 12 12 13 12 15 18 15 16 8 8 9 11 12 13 13 12 13 14 15 16 16 15 15 14 13 10 9 8 8 8 8 8 9 10 8 7 6 6 5 4 4 4 4 5 4 3 3
8 11 12 11 11 8 9 17 18 15 8 10 11 12 12 12 13 15 15 16 16 16 16 15 16 15 14 12 11 9 8 9 8 8 9 9 9 9 7 6 5 4 5 5 5 4 4 4 3
5 8 10 8 7 7 9 19 14 8 9 12 12 11 11 12 13 13 13 13 13 14 15 16 15 15 15 12 11 9 8 9 8 8 8 10 10 10 8 7 5 5 5 5 5 4 3 3 3
5 8 11 11 7 6 9 15 9 5 9 13 12 11 11 11 12 11 12 13 14 14 15 16 15 16 15 13 11 9 9 9 8 8 8 9 10 10 8 7 6 7 5 4 5 3 3 3 3
7 9 11 11 6 7 12 16 13 9 9 11 11 11 11 11 13 11 11 12 14 14 14 16 15 16 14 12 9 8 8 8 8 8 9 11 10 11 9 7 7 7 6 5 4 4 3 3 3
11 13 16 16 11 10 15 18 16 12 10 11 11 10 11 13 11 9 10 10 11 13 15 16 16 16 14 12 12 11 11 10 9 8 11 12 11 11 10 8 8 7 6 7 7 4 4 3 3
12 14 15 14 9 9 12 18 16 13 13 13 13 12 12 11 9 9 10 11 13 15 15 16 17 17 17 13 11 9 8 7 8 7 9 12 12 12 10 10 9 8 7 7 7 6 4 2 3
12 12 11 13 12 8 9 13 12 10 12 13 12 11 10 11 11 11 11 12 13 15 17 15 17 18 18 15 10 9 8 6 7 10 10 11 13 13 11 11 10 9 9 8 8 7 7 5 2
12 9 11 12 10 6 3 8 7 7 9 11 11 10 11 11 10 10 11 11 13 15 15 16 17 17 17 17 15 16 13 12 11 10 9 11 12 13 12 12 11 11 9 9 9 7 5 7 4
8 9 10 10 9 8 5 7 9 4 7 9 9 10 10 10 10 10 11 12 13 14 14 15 16 17 17 18 18 18 14 10 7 8 11 11 11 12 13 12 12 11 9 10 10 8 7 6 6
8 6 6 4 3 6 6 6 8 3 6 6 6 7 7 7 7 8 9 9 10 11 12 13 15 17 18 18 19 19 17 13 13 12 13 12 9 10 13 13 12 11 10 10 10 10 10 7 6
3 2 3 3 2 6 4 5 8 5 6 7 6 6 5 5 4 5 6 7 9 10 13 14 16 17 17 19 19 20 19 17 17 15 14 12 10 10 14 13 12 11 10 11 10 10 10 9 8
3 1 2 3 4 4 3 6 6 5 6 5 5 5 4 4 4 5 6 7 8 10 12 14 16 17 17 18 19 18 18 14 13 14 12 14 12 12 13 13 12 12 12 11 11 9 9 8 9
3 3 3 3 3 4 5 5 7 6 8 8 7 7 6 5 4 5 5 6 7 8 11 14 17 16 17 18 17 16 17 16 14 14 12 11 9 10 13 14 13 12 12 12 11 9 9 9 9
2 3 2 1 2 4 5 4 4 8 10 10 9 8 8 8 7 6 5 6 6 7 9 12 15 17 17 17 16 14 16 16 14 13 14 13 12 12 14 14 13 13 12 12 12 9 9 10 9
2 1 1 2 2 3 5 4 1 5 8 9 9 9 9 9 8 7 6 6 6 6 7 9 12 14 15 16 15 14 14 15 14 13 14 14 13 13 15 15 14 14 13 13 12 11 11 11 9
2 1 1 1 4 3 4 6 3 5 8 10 11 11 11 10 8 7 7 5 4 4 5 8 10 12 14 15 14 15 14 13 14 14 14 13 13 14 14 14 14 14 13 13 13 12 12 12 11
Wind_Direction
320 82 83 69 66 236 233 227 210 215 222 218 191 183 195 195 181 218 268 153 151 158 166 169 166 164 162 161 159 155 152 148 145 143 141 139 136 133 130 126 124 120 117 116 115 113 111 109 105
352 102 75 92 178 225 241 215 216 217 216 218 223 216 223 243 234 242 189 167 156 159 165 166 166 163 163 162 160 157 154 150 147 145 143 141 139 136 132 128 125 120 117 117 116 115 114 111 108
312 127 144 171 212 218 225 214 223 231 238 250 262 241 222 235 227 221 200 164 154 160 165 166 165 164 164 164 162 159 156 152 149 146 145 144 142 139 135 131 127 122 120 120 119 119 117 113 111
74 89 167 219 232 223 212 214 206 234 255 227 222 272 261 253 233 211 164 159 157 162 163 166 166 166 166 164 162 158 156 154 151 148 148 147 144 141 136 132 129 125 124 124 124 122 120 116 113
88 159 222 236 239 233 225 239 252 257 260 219 206 267 277 296 311 161 158 163 163 163 164 167 167 167 166 164 162 159 158 156 154 151 151 149 146 141 136 133 131 130 130 130 127 123 122 119 116
202 194 225 237 240 234 228 227 247 257 257 259 239 250 260 297 135 166 163 166 165 164 164 167 170 168 167 165 162 161 160 158 155 153 152 150 145 141 138 136 136 135 134 133 130 126 124 122 118
205 222 237 245 252 244 233 210 224 241 251 241 209 243 274 289 209 158 155 155 160 165 164 168 171 169 167 165 163 164 162 158 155 155 153 149 146 144 142 140 140 139 138 136 133 130 127 124 120
203 237 247 242 247 251 231 220 223 223 246 232 190 214 245 249 150 138 143 153 162 170 170 168 167 165 164 164 163 162 160 157 157 155 149 146 147 147 146 142 143 141 139 137 135 132 127 124 121
197 236 240 235 238 252 208 240 252 239 236 232 219 222 239 150 143 146 155 169 175 179 177 170 166 164 160 160 163 160 159 158 156 151 144 141 139 138 140 140 144 143 142 140 137 132 124 119 118
207 236 243 244 241 255 251 247 255 263 256 254 263 272 179 156 166 173 178 181 185 185 183 176 170 165 160 161 158 158 156 154 148 144 139 131 128 129 131 140 144 144 142 140 137 130 115 101 94
229 245 264 264 270 272 267 263 256 247 251 240 240 237 191 186 188 189 192 191 191 187 183 178 173 167 163 158 154 153 147 144 140 140 134 130 124 125 123 128 136 132 127 117 112 99 92 95 99
251 261 270 272 278 277 272 271 259 243 250 253 248 228 203 200 202 200 199 200 195 189 186 179 174 169 165 159 156 152 148 147 147 146 142 138 133 131 131 124 121 117 111 108 102 101 99 98 103
248 260 264 270 275 275 275 266 265 259 259 262 250 232 217 212 213 210 207 204 199 194 189 181 176 172 167 160 159 156 154 152 149 149 148 146 144 144 138 133 128 125 121 120 116 111 108 105 106
265 273 272 272 271 268 267 268 262 260 257 255 243 233 227 221 219 215 209 205 202 198 192 184 180 176 169 166 163 159 157 153 152 153 154 151 149 149 146 142 138 137 135 129 124 124 117 110 113
276 283 277 256 251 248 264 266 250 256 250 249 245 239 233 229 221 216 209 206 203 199 192 187 183 177 173 168 165 161 159 157 157 157 158 156 153 153 151 150 150 148 137 126 117 110 105 108 107
267 266 266 254 233 236 229 258 260 253 244 251 250 244 238 235 228 219 212 209 204 199 194 190 187 181 177 172 167 163 162 161 160 160 161 161 158 156 153 156 157 149 139 134 129 124 111 111 114
236 252 260 276 237 236 231 260 271 265 258 256 253 247 241 237 237 228 214 207 202 199 194 191 189 183 179 173 168 164 163 165 163 163 165 166 163 162 159 160 156 150 143 140 141 127 126 129 125
257 261 268 269 270 263 262 268 276 273 259 257 253 248 240 235 235 231 215 206 201 198 194 192 189 185 178 171 166 163 165 169 167 169 171 168 168 166 161 160 158 154 149 147 144 132 115 123 128
275 277 276 278 281 275 263 267 271 268 257 257 255 247 240 235 233 229 222 205 197 197 195 192 189 185 179 177 177 176 179 178 175 175 172 172 170 169 167 165 162 163 163 161 149 132 125 118 126
269 275 277 285 284 276 271 271 270 258 250 248 249 245 238 239 232 223 222 207 198 196 195 193 191 187 186 186 182 179 172 175 176 173 175 176 174 173 174 169 171 170 162 158 159 143 134 133 150
271 262 268 278 298 280 275 275 257 252 243 244 243 240 233 233 228 220 217 211 200 197 196 196 192 190 190 184 174 167 161 160 174 181 183 183 179 179 177 176 172 173 171 173 172 162 152 151 170
278 264 268 277 286 283 252 283 272 253 251 245 245 239 231 231 228 220 215 211 203 202 197 196 195 191 190 185 181 179 183 187 189 183 181 180 182 181 180 177 176 176 177 175 177 172 160 150 162
266 282 276 271 270 274 240 257 281 251 252 254 247 242 236 230 226 219 217 215 207 201 198 196 195 194 190 190 187 186 191 189 169 170 175 179 183 183 182 180 180 180 180 178 176 172 171 165 163
286 293 288 275 255 260 226 220 278 251 249 269 263 252 247 238 233 228 223 218 211 201 197 194 194 196 192 193 193 192 192 183 175 178 182 183 183 185 185 183 184 183 182 181 180 179 180 180 171
327 342 342 334 264 255 228 218 255 273 280 270 274 268 254 241 239 236 225 219 214 203 198 195 195 197 194 194 197 197 195 188 187 184 185 182 182 188 189 185 186 185 184 181 178 179 185 184 182
287 234 227 262 257 288 250 237 259 292 307 315 311 304 296 268 249 245 236 223 218 208 202 197 198 198 195 196 199 200 196 193 192 188 186 189 190 190 183 184 186 185 182 181 181 183 187 187 191
297 268 255 259 278 272 261 283 301 334 342 343 340 339 330 315 297 272 257 238 224 214 208 203 199 199 196 197 198 198 196 196 194 188 186 189 187 180 179 183 184 184 182 182 180 187 188 187 195
235 286 332 294 286 278 286 282 301 341 340 343 345 340 333 329 318 303 276 251 237 223 214 206 202 200 197 196 198 198 196 196 192 186 189 189 185 179 178 183 184 183 183 183 183 185 186 188 194
303 337 318 279 268 280 298 288 314 337 336 338 333 331 332 328 323 315 300 272 248 232 216 208 205 201 197 196 197 197 195 194 189 189 191 189 182 180 182 183 184 184 185 185 187 188 184 191 193
221 224 147 292 290 270 277 276 323 344 345 344 338 335 333 330 326 322 315 302 273 249 230 214 207 202 199 196 195 197 194 190 191 192 190 186 183 183 183 181 183 185 186 186 188 189 188 191 193